[[{"header":{"parameterUnit":"m.s-1","parameterCategory":2,"la1":30.2991,"la2":30.254,"lo1":-89.0895,"lo2":-89.0444,"dy":0.0017,"dx":0.0017,"nx":28,"ny":28,"refTime":"2023-07-21T03:00:00:Z","depth":"0","parameterNumber":2,"parameterNumberName":"U-component_of_CURRENTS"},"data":[0,0,0,0,0,0,0,0,0,0,0,0,0,0,0,0,0,0,0,0,0,0,0,0,0,0,0,0,0,0,0,0,0,0,0,0,0,0,0,0,0,0,0,0,0,0,0,0,0,0,0,0,0,0,0,0,0,0,0.4681,0.4682,0,0.4768,0.4768,0.4769,0.4762,0.4761,0.4761,0.476,0.4864,0.4867,0.487,0,0,0,0,0,0,0,0,0,0,0,0,0,0.4504,0.4506,0.468,0.4682,0.4684,0.4768,0.4768,0.4769,0.4762,0.4761,0.4761,0.476,0.4863,0.4867,0.4871,0,0,0,0,0,0,0,0,0,0,0,0,0,0.4577,0.4507,0.468,0.4697,0.47,0.4768,0.4768,0.4769,0.4762,0.4761,0.476,0.476,0.4861,0.4866,0.4871,0.4919,0,0,0.4886,0.4888,0,0,0,0,0,0,0,0,0.4573,0.4583,0.4693,0.4696,0.4699,0.476,0.4744,0.4823,0.4762,0.473,0.476,0.4759,0.4837,0.4843,0.485,0.4924,0.4928,0.4887,0.489,0.4892,0.4893,0,0,0,0,0,0,0,0.4568,0.4579,0.4707,0.4695,0.4699,0.4699,0.4708,0.4758,0.4781,0.4733,0.4735,0.4757,0.4837,0.4845,0.4853,0.493,0.4886,0.4891,0.4894,0.4896,0.5063,0.5064,0,0,0,0,0,0,0.4575,0.4575,0.4704,0.4711,0.4642,0.4704,0.4713,0.4735,0.478,0.4789,0.4758,0.4757,0.4837,0.4847,0.4857,0.4917,0.4892,0.4896,0.4899,0.5061,0.5063,0.5065,0,0,0,0,0,0,0.4571,0.4586,0.4701,0.465,0.4666,0.4708,0.4733,0.4737,0.4738,0.4801,0.4807,0.4754,0.4837,0.485,0.4902,0.4921,0.4899,0.4903,0.506,0.5062,0.5064,0.5039,0,0,0,0,0,0,0.4565,0.4583,0.4594,0.4651,0.467,0.4717,0.4735,0.474,0.4758,0.4756,0.48,0.4809,0.4837,0.4894,0.4907,0.4928,0.4907,0.5058,0.5061,0.5063,0.5038,0.504,0.5042,0,0,0,0,0,0.4558,0.4576,0.4594,0.461,0.4685,0.4717,0.4724,0.4746,0.4758,0.4745,0.4794,0.4807,0.4921,0.4899,0.4914,0.4937,0.5056,0.506,0.5063,0.5037,0.504,0.5042,0,0,0,0,0,0,0.4527,0.458,0.46,0.4639,0.4666,0.4718,0.4726,0.4744,0.4771,0.4778,0.4826,0.4839,0.4898,0.4923,0.4898,0.4995,0.4992,0.4998,0.4967,0.497,0.4972,0.4951,0.4911,0,0,0,0,0,0.4524,0.4535,0.4593,0.4622,0.4637,0.468,0.4697,0.4713,0.4755,0.4764,0.4799,0.4855,0.4926,0.4948,0.5003,0.505,0.5095,0.5077,0.5078,0.508,0.5074,0.5176,0.5186,0.5076,0.5076,0.5075,0,0,0.4528,0.4556,0.4568,0.4613,0.4641,0.466,0.4684,0.4708,0.4725,0.4777,0.4804,0.4866,0.4944,0.5002,0.5029,0.5019,0.5135,0.5084,0.5084,0.5078,0.518,0.5191,0.52,0.5078,0.5077,0.5077,0,0,0.4533,0.4559,0.4567,0.4583,0.4621,0.4643,0.4646,0.4689,0.4701,0.4746,0.4805,0.4869,0.4948,0.5007,0.5054,0.51,0.515,0.5125,0.5108,0.5207,0.5216,0.5225,0.529,0.5305,0.5115,0.5115,0.5115,0,0.4537,0.4553,0.4574,0.4586,0.4596,0.4632,0.4639,0.4668,0.4719,0.474,0.4746,0.4897,0.4953,0.5054,0.5073,0.5103,0.5162,0.5089,0.5208,0.5218,0.5228,0.5292,0.5309,0.5115,0.5115,0.5115,0.5115,0,0.4554,0.4555,0.4561,0.4578,0.4588,0.4595,0.4639,0.4648,0.4673,0.4715,0.48,0.4884,0.4973,0.5009,0.506,0.5163,0.5184,0.5206,0.5195,0.5237,0.5302,0.532,0.5113,0.5114,0.5114,0.5114,0,0,0.4585,0.4569,0.4569,0.4547,0.4574,0.4576,0.4606,0.4638,0.4661,0.4722,0.4771,0.4898,0.4949,0.5007,0.5082,0.5159,0.528,0.5209,0.5215,0.5259,0.549,0.5381,0.5391,0.5335,0.5338,0.534,0.5505,0,0.4584,0.4565,0.4568,0.4543,0.453,0.455,0.4566,0.4605,0.4652,0.4707,0.4813,0.4895,0.4952,0.5003,0.5099,0.525,0.5328,0.5232,0.5454,0.546,0.5348,0.5408,0.5213,0.5333,0.5523,0.5526,0.5528,0,0.46,0.4569,0.4539,0.4486,0.4486,0.4482,0.4491,0.4517,0.4617,0.4664,0.477,0.486,0.5007,0.5036,0.5293,0.5238,0.5362,0.5456,0.5466,0.5382,0.5384,0.5326,0.5359,0.5167,0.5556,0.5554,0.5552,0,0.4582,0.4542,0.4495,0.4486,0.4459,0.4444,0.4439,0.4504,0.4526,0.4649,0.4689,0.4873,0.4964,0.5158,0.5351,0.5349,0.5612,0.5633,0.5642,0.5635,0.5517,0.5493,0.5375,0.5801,0.58,0.58,0.5799,0,0.4568,0.4528,0.4472,0.4449,0.4392,0.4399,0.438,0.4417,0.4487,0.4525,0.467,0.4742,0.5003,0.5174,0.536,0.5548,0.563,0.5646,0.5677,0.55,0.5474,0.534,0.5254,0.5806,0.5805,0.5803,0.5802,0,0.4555,0.4526,0.4462,0.4404,0.4383,0.4347,0.4317,0.4313,0.4392,0.4452,0.4489,0.4678,0.4899,0.5128,0.5435,0.5526,0.5564,0.5769,0.5517,0.5514,0.5304,0.5225,0.5043,0.4916,0.5809,0.5807,0.5806,0,0.4528,0.4498,0.4424,0.4372,0.4336,0.428,0.4245,0.4278,0.4284,0.4408,0.4437,0.4636,0.4781,0.515,0.5367,0.5636,0.5492,0.5554,0.5498,0.5254,0.5193,0.5019,0.4914,0.5349,0.5344,0.534,0.5336,0,0.4464,0.4454,0.4399,0.4313,0.4246,0.4168,0.4124,0.4115,0.417,0.4235,0.4336,0.4454,0.4771,0.4936,0.5226,0.5383,0.5231,0.5474,0.5309,0.4878,0.4598,0.4502,0.526,0.53,0.5303,0.5306,0.5308,0.531,0.44,0.436,0.4299,0.4207,0.4137,0.4041,0.3957,0.3955,0.3961,0.4019,0.4203,0.4336,0.4542,0.4933,0.5013,0.4959,0.5016,0.4886,0.4836,0.4702,0.4466,0.5107,0.5116,0.5118,0.5121,0.5122,0.5124,0,0.4271,0.4252,0.418,0.4051,0.3942,0.3945,0.3853,0.3773,0.3751,0.3882,0.3986,0.4145,0.4273,0.4412,0.447,0.4347,0.4229,0.4233,0.3949,0.3905,0.4567,0.4428,0.4177,0.4177,0.4177,0.4177,0.4178,0.4178,0.4203,0.4115,0.409,0.3882,0.3798,0.362,0.3553,0.3495,0.3529,0.3534,0.3592,0.3723,0.3855,0.3918,0.3796,0.3753,0.348,0.3353,0.3358,0.3811,0.3867,0.392,0.3768,0.3382,0.3381,0.2575,0.2568,0.2563]},{"header":{"parameterUnit":"m.s-1","parameterCategory":2,"la1":30.2991,"la2":30.254,"lo1":-89.0895,"lo2":-89.0444,"dy":0.0017,"dx":0.0017,"nx":28,"ny":28,"refTime":"2023-07-21T03:00:00:Z","depth":"0","parameterNumber":3,"parameterNumberName":"V-component_of_CURRENTS"},"data":[0,0,0,0,0,0,0,0,0,0,0,0,0,0,0,0,0,0,0,0,0,0,0,0,0,0,0,0,0,0,0,0,0,0,0,0,0,0,0,0,0,0,0,0,0,0,0,0,0,0,0,0,0,0,0,0,0,0,0.1505,0.1505,0,0.1482,0.1481,0.1481,0.1389,0.1387,0.1385,0.1384,0.1278,0.1277,0.1276,0,0,0,0,0,0,0,0,0,0,0,0,0,0.1463,0.1464,0.1505,0.1505,0.1505,0.1482,0.1481,0.148,0.139,0.1387,0.1385,0.1383,0.1278,0.1277,0.1275,0,0,0,0,0,0,0,0,0,0,0,0,0,0.1462,0.1464,0.1505,0.1459,0.1454,0.1482,0.1481,0.148,0.139,0.1387,0.1384,0.1382,0.1278,0.1277,0.1275,0.1321,0,0,0.127,0.127,0,0,0,0,0,0,0,0,0.1462,0.1464,0.1465,0.1462,0.1457,0.1438,0.1427,0.1424,0.1391,0.1412,0.1384,0.138,0.1327,0.1321,0.1321,0.1316,0.1312,0.127,0.1269,0.1268,0.1268,0,0,0,0,0,0,0,0.1463,0.1464,0.1493,0.1466,0.1461,0.1436,0.1433,0.1426,0.1382,0.141,0.1404,0.1406,0.1323,0.1323,0.1317,0.131,0.127,0.1269,0.1268,0.1267,0.1314,0.1316,0,0,0,0,0,0,0.1475,0.1465,0.1494,0.1493,0.1456,0.144,0.1436,0.1445,0.1384,0.1373,0.1408,0.1402,0.1327,0.132,0.1313,0.1369,0.1268,0.1267,0.1266,0.1312,0.1314,0.1317,0,0,0,0,0,0,0.1474,0.1478,0.1495,0.1479,0.148,0.1444,0.1454,0.1446,0.144,0.1384,0.1371,0.1411,0.1324,0.1316,0.133,0.1363,0.1266,0.1265,0.1309,0.1313,0.1316,0.1476,0,0,0,0,0,0,0.1473,0.1478,0.1496,0.1481,0.1481,0.1514,0.1457,0.1447,0.1447,0.1438,0.1383,0.137,0.1322,0.1333,0.1328,0.1359,0.1264,0.1306,0.1311,0.1315,0.1468,0.1485,0.1499,0,0,0,0,0,0.1472,0.1506,0.1497,0.1501,0.1505,0.1516,0.1514,0.1476,0.145,0.1458,0.1437,0.1371,0.1354,0.1335,0.1328,0.1359,0.1304,0.1309,0.1314,0.1461,0.1481,0.1498,0,0,0,0,0,0,0.1503,0.15,0.149,0.1523,0.1522,0.1501,0.1516,0.1492,0.1484,0.1473,0.1416,0.1404,0.1427,0.1379,0.1359,0.1384,0.1312,0.1317,0.1426,0.1445,0.146,0.1483,0.1262,0,0,0,0,0,0.1522,0.1538,0.1534,0.1561,0.1569,0.1548,0.1551,0.1524,0.1513,0.1504,0.1476,0.1447,0.1448,0.1434,0.1421,0.1445,0.1388,0.1455,0.1471,0.1484,0.1499,0.1469,0.1483,0.1333,0.1333,0.1333,0,0,0.1542,0.1543,0.1553,0.1568,0.1568,0.1596,0.1542,0.1551,0.1575,0.1498,0.1531,0.1509,0.147,0.1498,0.1501,0.1457,0.1493,0.149,0.1502,0.151,0.1475,0.149,0.1502,0.1336,0.1336,0.1335,0,0,0.1585,0.1596,0.1622,0.1632,0.1636,0.1634,0.1643,0.1635,0.1632,0.1666,0.1623,0.1633,0.1618,0.1607,0.1598,0.1693,0.1586,0.1672,0.1759,0.173,0.1742,0.1752,0.1685,0.1687,0.1668,0.1668,0.1668,0,0.1609,0.1639,0.1633,0.1664,0.1683,0.166,0.1698,0.171,0.1706,0.1729,0.1689,0.1711,0.1676,0.1724,0.1754,0.1729,0.1676,0.1694,0.1751,0.1759,0.1767,0.1695,0.1696,0.1677,0.1676,0.1675,0.1674,0,0.1664,0.1695,0.1718,0.1752,0.1778,0.1804,0.1823,0.1853,0.1852,0.1858,0.1906,0.1875,0.188,0.1873,0.1845,0.1889,0.1821,0.1784,0.1706,0.1792,0.171,0.1708,0.1689,0.1686,0.1683,0.1681,0,0,0.1692,0.1745,0.1752,0.1775,0.1821,0.184,0.192,0.1976,0.2028,0.2029,0.209,0.2104,0.2078,0.2067,0.2025,0.2004,0.201,0.1923,0.1917,0.1859,0.1915,0.182,0.1807,0.1977,0.1978,0.1979,0.1831,0,0.1732,0.1791,0.1821,0.1891,0.1923,0.1958,0.2034,0.2084,0.2123,0.2181,0.2172,0.2204,0.2153,0.2149,0.2137,0.206,0.2014,0.2052,0.1838,0.1831,0.1739,0.1806,0.173,0.1589,0.1829,0.1828,0.1828,0,0.1763,0.1798,0.1863,0.1945,0.1969,0.2017,0.2126,0.2189,0.2283,0.2314,0.2357,0.2343,0.2359,0.2275,0.2187,0.221,0.2078,0.1992,0.1983,0.184,0.1734,0.1544,0.1575,0.13,0.1823,0.1824,0.1824,0,0.1738,0.1826,0.1872,0.1898,0.1995,0.2046,0.211,0.222,0.229,0.2387,0.2434,0.2454,0.2439,0.2338,0.2201,0.2183,0.2066,0.2006,0.1783,0.1772,0.1639,0.1615,0.1383,0.1903,0.1903,0.1904,0.1904,0,0.1747,0.1784,0.1858,0.1878,0.1957,0.2032,0.2136,0.2218,0.2338,0.2433,0.2481,0.2533,0.2451,0.2388,0.2241,0.2028,0.2089,0.1811,0.1743,0.169,0.1674,0.1371,0.1282,0.1898,0.1899,0.19,0.1901,0,0.1702,0.175,0.1799,0.1898,0.1935,0.1984,0.2133,0.2219,0.2334,0.2456,0.2487,0.2575,0.2511,0.2398,0.2223,0.2051,0.1716,0.1754,0.1687,0.1615,0.114,0.1066,0.0826,0.0742,0.1481,0.1478,0.1475,0,0.1684,0.1698,0.1786,0.1822,0.1864,0.1955,0.2039,0.2188,0.2293,0.2478,0.2536,0.2539,0.2576,0.2318,0.2034,0.1758,0.1579,0.1445,0.14,0.1111,0.0979,0.0947,0.0894,0.127,0.1266,0.1262,0.126,0,0.1647,0.1667,0.1708,0.1776,0.1848,0.1955,0.2084,0.2166,0.2359,0.2482,0.2625,0.2676,0.2463,0.2209,0.1842,0.1621,0.1268,0.1363,0.1092,0.0827,0.0752,0.0639,0.1341,0.1231,0.1234,0.1236,0.1237,0.1238,0.1611,0.1624,0.1674,0.1738,0.1831,0.196,0.204,0.2203,0.2373,0.2601,0.266,0.2785,0.2376,0.1895,0.1572,0.0875,0.1,0.0648,0.0588,0.0585,0.0495,0.112,0.0923,0.0924,0.0925,0.0926,0.0926,0,0.1566,0.1595,0.1647,0.1734,0.1823,0.1898,0.2082,0.2191,0.2377,0.2624,0.2774,0.2637,0.21,0.156,0.0651,0.0183,0.009,-0.0054,-0.0131,-0.014,0.0403,0.038,0.0024,0.0024,0.0024,0.0025,0.0025,0.0025,0.1543,0.1564,0.1596,0.1706,0.1782,0.1912,0.2013,0.2202,0.2402,0.2648,0.2754,0.2827,0.2293,0.0774,-0.031,-0.0517,-0.0752,-0.0806,-0.0879,-0.0563,-0.0502,-0.0445,-0.0492,-0.1026,-0.1027,-0.1402,-0.1407,-0.141]}],[{"header":{"parameterUnit":"m.s-1","parameterCategory":2,"la1":30.2991,"la2":30.254,"lo1":-89.0895,"lo2":-89.0444,"dy":0.0017,"dx":0.0017,"nx":28,"ny":28,"refTime":"2023-07-21T03:00:00:Z","depth":"2","parameterNumber":2,"parameterNumberName":"U-component_of_CURRENTS"},"data":[0,0,0,0,0,0,0,0,0,0,0,0,0,0,0,0,0,0,0,0,0,0,0,0,0,0,0,0,0,0,0,0,0,0,0,0,0,0,0,0,0,0,0,0,0,0,0,0,0,0,0,0,0,0,0,0,0,0,0.2747,0.2749,0,0.2964,0.2967,0.2969,0.3097,0.3098,0.3099,0.3099,0.329,0.3294,0.3299,0,0,0,0,0,0,0,0,0,0,0,0,0,0.2549,0.2551,0.2747,0.275,0.2753,0.2964,0.2967,0.2969,0.3097,0.3098,0.3099,0.31,0.3289,0.3294,0.3299,0,0,0,0,0,0,0,0,0,0,0,0,0,0.2684,0.2551,0.2746,0.2844,0.2855,0.2964,0.2967,0.297,0.3097,0.3098,0.3099,0.31,0.3287,0.3293,0.33,0.3314,0,0,0.3319,0.3322,0,0,0,0,0,0,0,0,0.2676,0.269,0.2827,0.2838,0.285,0.3008,0.2968,0.3085,0.3096,0.3001,0.3099,0.3101,0.3195,0.3209,0.3242,0.3323,0.3331,0.332,0.3324,0.3327,0.3329,0,0,0,0,0,0,0,0.2666,0.2682,0.283,0.283,0.2844,0.2915,0.2934,0.2991,0.3085,0.301,0.302,0.305,0.3201,0.3236,0.3248,0.3334,0.332,0.3326,0.333,0.3332,0.3502,0.3503,0,0,0,0,0,0,0.2639,0.2673,0.2823,0.2836,0.2768,0.2917,0.2938,0.2953,0.3085,0.3108,0.3048,0.3055,0.3224,0.324,0.3255,0.3361,0.3327,0.3333,0.3336,0.3501,0.3502,0.3503,0,0,0,0,0,0,0.2634,0.265,0.2814,0.2763,0.279,0.2918,0.2935,0.2957,0.3063,0.3116,0.3137,0.3139,0.3226,0.3246,0.3357,0.3366,0.3336,0.3341,0.3501,0.3502,0.3503,0.3521,0,0,0,0,0,0,0.2627,0.2646,0.2656,0.2761,0.2792,0.2899,0.2935,0.296,0.3076,0.3088,0.3199,0.3215,0.3228,0.3347,0.3363,0.3374,0.3346,0.35,0.3501,0.3502,0.3519,0.3522,0.3525,0,0,0,0,0,0.2618,0.2613,0.2654,0.2674,0.2797,0.29,0.2923,0.3017,0.308,0.312,0.3208,0.3215,0.3364,0.3355,0.3373,0.3386,0.3499,0.3501,0.3502,0.3518,0.3522,0.3525,0,0,0,0,0,0,0.2568,0.263,0.2676,0.2702,0.2809,0.2924,0.2956,0.3058,0.3164,0.317,0.3254,0.3274,0.3371,0.338,0.3368,0.3434,0.3421,0.3426,0.3426,0.343,0.3433,0.3328,0.3352,0,0,0,0,0,0.2552,0.2558,0.2661,0.2704,0.2729,0.2865,0.2927,0.2998,0.3101,0.3154,0.3246,0.3313,0.3378,0.3412,0.3464,0.3517,0.3507,0.3526,0.3529,0.3531,0.3456,0.3479,0.3476,0.3508,0.3508,0.3508,0,0,0.256,0.2593,0.2608,0.2693,0.2763,0.2793,0.2905,0.299,0.3035,0.3151,0.3246,0.3349,0.3403,0.3459,0.3497,0.3475,0.3531,0.3533,0.3535,0.3456,0.348,0.3477,0.3474,0.3509,0.3509,0.3508,0,0,0.2535,0.2587,0.256,0.2627,0.2719,0.278,0.2823,0.296,0.3028,0.3151,0.323,0.3325,0.346,0.3465,0.3492,0.3535,0.3563,0.3587,0.35,0.3527,0.3523,0.3519,0.356,0.356,0.3566,0.3566,0.3566,0,0.2507,0.2533,0.2588,0.2584,0.2647,0.2775,0.2801,0.286,0.3037,0.3108,0.3169,0.3375,0.3426,0.3471,0.3472,0.3532,0.3576,0.3493,0.3528,0.3524,0.3519,0.3561,0.3561,0.3567,0.3567,0.3567,0.3567,0,0.2461,0.2502,0.25,0.2516,0.2585,0.2639,0.2721,0.2811,0.2939,0.3031,0.3175,0.3263,0.3385,0.3419,0.3456,0.3465,0.3521,0.3552,0.3514,0.3517,0.3563,0.3561,0.3569,0.3568,0.3568,0.3568,0,0,0.2319,0.243,0.2435,0.248,0.2568,0.2623,0.2672,0.2781,0.2858,0.2988,0.3107,0.3182,0.3287,0.3314,0.3395,0.3373,0.3407,0.3442,0.3443,0.347,0.3504,0.3396,0.3386,0.3484,0.3483,0.3482,0.3568,0,0.2265,0.2282,0.2353,0.2412,0.244,0.2574,0.2625,0.2736,0.2872,0.2999,0.3073,0.3203,0.3228,0.3332,0.3314,0.342,0.3396,0.338,0.3501,0.3502,0.3397,0.3375,0.3121,0.3161,0.3567,0.3567,0.3567,0,0.2175,0.2219,0.2268,0.2415,0.2434,0.2484,0.2649,0.2713,0.2866,0.2983,0.3098,0.3211,0.3245,0.3265,0.3332,0.3352,0.339,0.3419,0.3426,0.3287,0.3387,0.3213,0.3144,0.3565,0.3565,0.3565,0.3565,0,0.2075,0.2164,0.2226,0.227,0.2415,0.249,0.2576,0.2734,0.2809,0.2984,0.3087,0.3181,0.3271,0.3303,0.3391,0.3396,0.3454,0.3488,0.34,0.3398,0.3164,0.314,0.3452,0.3452,0.3451,0.3451,0.3451,0,0.1994,0.2042,0.22,0.2234,0.2317,0.2446,0.2554,0.2669,0.2825,0.2917,0.3071,0.3166,0.3283,0.3368,0.3402,0.3404,0.3482,0.3332,0.3382,0.3171,0.3148,0.3468,0.3469,0.3455,0.3454,0.3453,0.3453,0,0.1883,0.1986,0.2054,0.222,0.2277,0.2339,0.2519,0.2589,0.2762,0.2894,0.2952,0.3166,0.3304,0.3393,0.3486,0.342,0.3436,0.3408,0.3157,0.3167,0.336,0.3361,0.3299,0.3295,0.3292,0.3289,0.3287,0,0.1832,0.1862,0.2019,0.2061,0.2145,0.2265,0.2341,0.2535,0.2623,0.2891,0.2938,0.314,0.3264,0.336,0.3298,0.3306,0.3422,0.3039,0.2918,0.3273,0.333,0.3337,0.3342,0.2671,0.2663,0.2658,0.2653,0,0.173,0.1795,0.1849,0.1944,0.2033,0.2123,0.2268,0.232,0.2557,0.2685,0.2882,0.3008,0.3127,0.3039,0.3036,0.299,0.3013,0.2915,0.3363,0.2731,0.2682,0.2739,0.2764,0.2601,0.2606,0.261,0.2613,0.2615,0.1644,0.1654,0.1737,0.1816,0.1898,0.1983,0.2028,0.2185,0.231,0.2478,0.2664,0.2758,0.2786,0.2648,0.2595,0.2536,0.2699,0.2569,0.2587,0.2611,0.2504,0.2449,0.2308,0.2311,0.2314,0.2317,0.2319,0,0.1539,0.1569,0.1613,0.1694,0.1718,0.1848,0.1966,0.1996,0.2109,0.2257,0.2373,0.2162,0.2142,0.225,0.2057,0.1998,0.1974,0.1954,0.1929,0.1979,0.2024,0.1888,0.1529,0.1527,0.1525,0.1523,0,0,0.1482,0.1478,0.1508,0.1514,0.1579,0.1629,0.1684,0.175,0.184,0.1832,0.1855,0.1971,0.2123,0.1773,0.1719,0.1635,0.1799,0.1564,0.2189,0.2207,0.2251,0.2357,0.22,0,0,0,0,0]},{"header":{"parameterUnit":"m.s-1","parameterCategory":2,"la1":30.2991,"la2":30.254,"lo1":-89.0895,"lo2":-89.0444,"dy":0.0017,"dx":0.0017,"nx":28,"ny":28,"refTime":"2023-07-21T03:00:00:Z","depth":"2","parameterNumber":3,"parameterNumberName":"V-component_of_CURRENTS"},"data":[0,0,0,0,0,0,0,0,0,0,0,0,0,0,0,0,0,0,0,0,0,0,0,0,0,0,0,0,0,0,0,0,0,0,0,0,0,0,0,0,0,0,0,0,0,0,0,0,0,0,0,0,0,0,0,0,0,0,-0.0817,-0.0816,0,-0.0836,-0.0837,-0.0839,-0.083,-0.0829,-0.0827,-0.0826,-0.0811,-0.0812,-0.0813,0,0,0,0,0,0,0,0,0,0,0,0,0,-0.0829,-0.083,-0.0817,-0.0816,-0.0815,-0.0836,-0.0837,-0.0839,-0.0831,-0.0829,-0.0827,-0.0825,-0.081,-0.0811,-0.0813,0,0,0,0,0,0,0,0,0,0,0,0,0,-0.0845,-0.083,-0.0817,-0.0804,-0.0803,-0.0836,-0.0837,-0.0839,-0.0831,-0.0829,-0.0826,-0.0824,-0.081,-0.0811,-0.0813,-0.0871,0,0,-0.0818,-0.0819,0,0,0,0,0,0,0,0,-0.0844,-0.0846,-0.0807,-0.0805,-0.0803,-0.0818,-0.0835,-0.0844,-0.0832,-0.0833,-0.0826,-0.0823,-0.0803,-0.0805,-0.0833,-0.087,-0.087,-0.0818,-0.0819,-0.082,-0.082,0,0,0,0,0,0,0,-0.0843,-0.0846,-0.0837,-0.0806,-0.0804,-0.0816,-0.0817,-0.0839,-0.0841,-0.0833,-0.0829,-0.0813,-0.0803,-0.0831,-0.0832,-0.0869,-0.0818,-0.0819,-0.082,-0.0821,-0.0815,-0.0814,0,0,0,0,0,0,-0.0816,-0.0845,-0.0836,-0.0836,-0.0804,-0.0817,-0.0818,-0.0825,-0.0841,-0.0838,-0.0815,-0.0812,-0.083,-0.083,-0.0831,-0.0779,-0.082,-0.0821,-0.0822,-0.0816,-0.0814,-0.0813,0,0,0,0,0,0,-0.0817,-0.0816,-0.0835,-0.0829,-0.0831,-0.0817,-0.0827,-0.0827,-0.0794,-0.0825,-0.0823,-0.0773,-0.0828,-0.0829,-0.0768,-0.0782,-0.0822,-0.0823,-0.0817,-0.0815,-0.0814,-0.0752,0,0,0,0,0,0,-0.0818,-0.0817,-0.0798,-0.0828,-0.083,-0.0803,-0.0828,-0.0828,-0.0785,-0.0781,-0.079,-0.079,-0.0826,-0.0765,-0.0769,-0.0785,-0.0825,-0.0819,-0.0816,-0.0814,-0.0756,-0.0749,-0.0743,0,0,0,0,0,-0.0819,-0.0815,-0.0798,-0.0795,-0.081,-0.08,-0.0802,-0.0794,-0.0784,-0.0759,-0.0742,-0.0786,-0.0756,-0.0763,-0.0769,-0.0787,-0.082,-0.0817,-0.0814,-0.0759,-0.075,-0.0743,0,0,0,0,0,0,-0.0774,-0.0814,-0.0796,-0.0791,-0.0762,-0.0792,-0.0776,-0.0761,-0.0737,-0.072,-0.075,-0.0747,-0.0719,-0.0741,-0.0748,-0.0777,-0.0806,-0.0804,-0.0762,-0.0754,-0.0748,-0.0751,-0.0826,0,0,0,0,0,-0.0761,-0.0786,-0.0781,-0.076,-0.0756,-0.0753,-0.0741,-0.0723,-0.0711,-0.0698,-0.0694,-0.0702,-0.073,-0.0719,-0.0742,-0.0734,-0.0772,-0.0755,-0.0748,-0.0742,-0.0748,-0.0827,-0.0829,-0.0805,-0.0805,-0.0805,0,0,-0.072,-0.0751,-0.0749,-0.0753,-0.075,-0.0741,-0.0743,-0.0706,-0.0689,-0.0701,-0.0663,-0.0671,-0.0719,-0.072,-0.0712,-0.0726,-0.0754,-0.0739,-0.0734,-0.0743,-0.0825,-0.0827,-0.083,-0.0803,-0.0803,-0.0803,0,0,-0.0683,-0.0694,-0.0706,-0.0702,-0.068,-0.069,-0.0659,-0.0646,-0.0632,-0.0574,-0.0612,-0.0604,-0.06,-0.0665,-0.0697,-0.0663,-0.072,-0.0666,-0.0636,-0.0712,-0.0716,-0.072,-0.0712,-0.0716,-0.0661,-0.0661,-0.0661,0,-0.0635,-0.0643,-0.0687,-0.0698,-0.0676,-0.066,-0.0627,-0.0639,-0.0589,-0.0569,-0.0534,-0.0562,-0.0596,-0.066,-0.0648,-0.0657,-0.0668,-0.0665,-0.0707,-0.0712,-0.0717,-0.0709,-0.0715,-0.0658,-0.0658,-0.0659,-0.0659,0,-0.0621,-0.0602,-0.0606,-0.0633,-0.0619,-0.0581,-0.0591,-0.0552,-0.0509,-0.0507,-0.0489,-0.0524,-0.0532,-0.0568,-0.0593,-0.066,-0.0641,-0.0693,-0.0732,-0.0716,-0.0707,-0.0714,-0.0653,-0.0655,-0.0655,-0.0656,0,0,-0.0586,-0.0594,-0.059,-0.0548,-0.0571,-0.054,-0.0538,-0.0511,-0.0466,-0.0453,-0.0409,-0.0491,-0.0481,-0.0518,-0.0571,-0.0645,-0.0678,-0.0665,-0.067,-0.0664,-0.0772,-0.0738,-0.0742,-0.0733,-0.0735,-0.0737,-0.073,0,-0.0541,-0.0515,-0.0551,-0.0474,-0.0439,-0.0447,-0.0431,-0.0412,-0.0383,-0.0341,-0.0421,-0.0395,-0.048,-0.0443,-0.0546,-0.0634,-0.07,-0.067,-0.0782,-0.0784,-0.0766,-0.0752,-0.0705,-0.0695,-0.0737,-0.0738,-0.0739,0,-0.0517,-0.0497,-0.0421,-0.0347,-0.0334,-0.0292,-0.0225,-0.0204,-0.0213,-0.0181,-0.0212,-0.0249,-0.0342,-0.0403,-0.0588,-0.0551,-0.0654,-0.0743,-0.0746,-0.0751,-0.0767,-0.0729,-0.0706,-0.0751,-0.075,-0.0749,-0.0748,0,-0.0441,-0.0395,-0.0311,-0.0298,-0.0243,-0.0184,-0.0141,-0.0128,-0.0079,-0.0067,-0.0001,-0.0139,-0.0131,-0.033,-0.0491,-0.0528,-0.0675,-0.0756,-0.0833,-0.0828,-0.0831,-0.0824,-0.0914,-0.0914,-0.0914,-0.0915,-0.0915,0,-0.0384,-0.0306,-0.0245,-0.0196,-0.0064,-0.0063,0.0068,0.0091,0.0132,0.0213,0.0106,0.0146,-0.0113,-0.0222,-0.043,-0.0611,-0.0628,-0.082,-0.0842,-0.0798,-0.0788,-0.089,-0.0887,-0.0914,-0.0914,-0.0914,-0.0914,0,-0.029,-0.0266,-0.0153,-0.0062,-0.0015,0.0091,0.0215,0.0299,0.0337,0.0442,0.0463,0.0379,0.0252,-0.0003,-0.0274,-0.0475,-0.0691,-0.0761,-0.064,-0.0651,-0.0804,-0.0798,-0.0854,-0.0853,-0.0852,-0.0852,-0.0851,0,-0.0227,-0.0162,-0.0042,0.0033,0.0096,0.024,0.0338,0.0407,0.0497,0.0588,0.0651,0.058,0.0535,0.0185,-0.0182,-0.0509,-0.0609,-0.0674,-0.0792,-0.0791,-0.0807,-0.0802,-0.0797,-0.0738,-0.0736,-0.0735,-0.0734,0,-0.0098,-0.0061,0.002,0.0162,0.029,0.0427,0.0583,0.0685,0.0778,0.0872,0.0982,0.096,0.0652,0.0325,-0.011,-0.0346,-0.0626,-0.0662,-0.071,-0.0762,-0.0683,-0.0698,-0.0697,-0.0724,-0.0725,-0.0726,-0.0727,-0.0727,0.0004,0.0078,0.017,0.0314,0.0447,0.0624,0.0768,0.092,0.1095,0.1234,0.1172,0.1127,0.074,0.0169,-0.0147,-0.0484,-0.055,-0.0713,-0.0717,-0.0722,-0.0711,-0.0637,-0.0661,-0.0662,-0.0662,-0.0663,-0.0663,0,0.0123,0.0193,0.0318,0.0489,0.0649,0.0693,0.093,0.1095,0.1334,0.1353,0.1402,0.1005,0.0655,0.0268,-0.0221,-0.054,-0.0575,-0.0617,-0.0618,-0.0627,-0.0635,-0.0621,-0.0547,-0.0547,-0.0547,-0.0547,0,0,0.0192,0.0316,0.037,0.0645,0.0766,0.1005,0.115,0.1398,0.1498,0.1512,0.1404,0.1181,0.0719,0.0361,-0.0047,-0.0268,-0.0359,-0.0301,-0.0371,-0.0331,-0.0333,-0.0677,-0.0663,0,0,0,0,0]}],[{"header":{"parameterUnit":"m.s-1","parameterCategory":2,"la1":30.2991,"la2":30.254,"lo1":-89.0895,"lo2":-89.0444,"dy":0.0017,"dx":0.0017,"nx":28,"ny":28,"refTime":"2023-07-21T03:00:00:Z","depth":"4","parameterNumber":2,"parameterNumberName":"U-component_of_CURRENTS"},"data":[0,0,0,0,0,0,0,0,0,0,0,0,0,0,0,0,0,0,0,0,0,0,0,0,0,0,0,0,0,0,0,0,0,0,0,0,0,0,0,0,0,0,0,0,0,0,0,0,0,0,0,0,0,0,0,0,0,0,0.0655,0.0655,0,0.0715,0.0716,0.0717,0.0765,0.0765,0.0765,0.0765,0.078,0.078,0.0781,0,0,0,0,0,0,0,0,0,0,0,0,0,0.0605,0.0606,0.0655,0.0655,0.0655,0.0715,0.0716,0.0717,0.0765,0.0765,0.0765,0.0765,0.078,0.078,0.0781,0,0,0,0,0,0,0,0,0,0,0,0,0,0.0646,0.0606,0.0655,0.0683,0.0686,0.0714,0.0716,0.0718,0.0765,0.0765,0.0765,0.0765,0.078,0.078,0.0781,0.0783,0,0,0.0782,0.0783,0,0,0,0,0,0,0,0,0.0644,0.0649,0.0678,0.0681,0.0684,0.0728,0.0704,0.0735,0.0765,0.074,0.0765,0.0765,0.0755,0.0758,0.0777,0.0783,0.0784,0.0782,0.0783,0.0783,0.0783,0,0,0,0,0,0,0,0.0641,0.0647,0.0683,0.0679,0.0682,0.07,0.0707,0.0711,0.0749,0.0742,0.0745,0.0744,0.0757,0.0776,0.0777,0.0784,0.0782,0.0783,0.0783,0.0783,0.0866,0.0868,0,0,0,0,0,0,0.0623,0.0644,0.0681,0.0685,0.0658,0.0701,0.0708,0.0718,0.075,0.0754,0.0744,0.0746,0.0775,0.0776,0.0777,0.0843,0.0783,0.0783,0.0784,0.0864,0.0867,0.0869,0,0,0,0,0,0,0.0622,0.0626,0.0679,0.0661,0.0668,0.0701,0.0712,0.0719,0.0764,0.0751,0.0755,0.0783,0.0775,0.0777,0.0806,0.0841,0.0784,0.0784,0.0862,0.0865,0.0868,0.0933,0,0,0,0,0,0,0.062,0.0626,0.0643,0.066,0.0669,0.0706,0.0712,0.072,0.0759,0.0763,0.0786,0.0786,0.0775,0.0806,0.0807,0.0841,0.0785,0.086,0.0863,0.0867,0.0929,0.0938,0.0946,0,0,0,0,0,0.0619,0.0631,0.0643,0.0648,0.0686,0.0706,0.0714,0.0739,0.0761,0.0782,0.0803,0.0787,0.0829,0.0807,0.0808,0.0843,0.0858,0.0862,0.0866,0.0925,0.0936,0.0946,0,0,0,0,0,0,0.0608,0.0637,0.0651,0.067,0.0692,0.0713,0.0733,0.0757,0.0796,0.081,0.0806,0.0808,0.084,0.0839,0.0815,0.088,0.0843,0.0847,0.0887,0.0897,0.0906,0.0915,0.0785,0,0,0,0,0,0.0614,0.064,0.066,0.0677,0.069,0.0722,0.0741,0.0764,0.0788,0.0808,0.0826,0.0847,0.0856,0.0875,0.0877,0.0917,0.0905,0.0943,0.0952,0.0959,0.0969,0.099,0.1001,0.0883,0.0883,0.0882,0,0,0.0606,0.0631,0.0642,0.0678,0.0701,0.0731,0.0736,0.0773,0.0809,0.0801,0.0864,0.0869,0.087,0.0908,0.0925,0.0916,0.0984,0.0964,0.097,0.0977,0.0995,0.1006,0.1016,0.0885,0.0885,0.0884,0,0,0.0606,0.0636,0.066,0.0687,0.0729,0.0753,0.077,0.0814,0.0847,0.0898,0.09,0.0936,0.0961,0.0977,0.0983,0.1045,0.1017,0.105,0.1116,0.1136,0.1145,0.1153,0.1138,0.1145,0.1069,0.1069,0.1069,0,0.0605,0.0636,0.0667,0.07,0.0726,0.0767,0.08,0.0838,0.0892,0.0923,0.0924,0.0987,0.0994,0.1039,0.107,0.1065,0.1059,0.1073,0.1146,0.1154,0.1161,0.1144,0.115,0.1073,0.1072,0.1072,0.1072,0,0.0613,0.0654,0.0669,0.0733,0.0768,0.0801,0.085,0.0904,0.0952,0.0987,0.1047,0.1063,0.1106,0.1117,0.1117,0.1182,0.1152,0.114,0.1116,0.1177,0.1154,0.116,0.1078,0.1077,0.1076,0.1075,0,0,0.0583,0.0661,0.0674,0.0712,0.0792,0.082,0.0892,0.096,0.1015,0.1071,0.1129,0.1176,0.1202,0.1212,0.1219,0.1252,0.1302,0.1236,0.1235,0.1214,0.1326,0.1277,0.1277,0.1305,0.1307,0.1308,0.1283,0,0.0589,0.0643,0.0694,0.0765,0.0797,0.0871,0.0934,0.1008,0.1067,0.1135,0.1173,0.1228,0.1231,0.1266,0.13,0.129,0.1322,0.1308,0.1276,0.1275,0.1219,0.1284,0.1314,0.1287,0.1288,0.1289,0.129,0,0.0593,0.0629,0.0685,0.0788,0.0813,0.0871,0.0984,0.105,0.1149,0.1199,0.1266,0.1292,0.1355,0.1347,0.1377,0.1368,0.137,0.1358,0.1356,0.1294,0.1237,0.1218,0.1299,0.1298,0.1297,0.1297,0.1296,0,0.0548,0.0639,0.0683,0.0714,0.0825,0.0884,0.0962,0.1072,0.114,0.1251,0.1307,0.136,0.1408,0.1411,0.1421,0.1406,0.1431,0.1396,0.1346,0.134,0.1358,0.1349,0.1434,0.1434,0.1434,0.1434,0.1434,0,0.0538,0.0581,0.067,0.0692,0.0772,0.0869,0.0971,0.106,0.1177,0.1251,0.1345,0.1386,0.1437,0.1458,0.1435,0.1409,0.1447,0.1368,0.1345,0.1383,0.1378,0.136,0.1351,0.1433,0.1433,0.1433,0.1433,0,0.0493,0.0546,0.0597,0.0703,0.0753,0.0812,0.0978,0.1036,0.1178,0.1272,0.1319,0.1425,0.1459,0.1484,0.1487,0.1437,0.1405,0.1394,0.1429,0.1405,0.1285,0.128,0.1306,0.1304,0.1303,0.1301,0.13,0,0.0473,0.0493,0.0586,0.062,0.0678,0.0787,0.0856,0.1016,0.1081,0.1268,0.1289,0.1398,0.1451,0.1406,0.1432,0.1398,0.1394,0.1362,0.1336,0.1304,0.1279,0.1277,0.1274,0.1298,0.1298,0.1298,0.1297,0,0.0432,0.0464,0.0496,0.0558,0.0626,0.0712,0.083,0.0872,0.1051,0.1173,0.1257,0.1304,0.1351,0.1353,0.1379,0.1338,0.1364,0.1347,0.1349,0.1324,0.1296,0.1271,0.127,0.1292,0.1293,0.1294,0.1294,0,0.0397,0.04,0.0442,0.0499,0.0576,0.0638,0.0703,0.0802,0.0901,0.1115,0.1115,0.1232,0.1326,0.1321,0.1308,0.1311,0.1278,0.1221,0.1228,0.1234,0.1227,0.1182,0.1138,0,0,0,0,0,0.0364,0.0364,0.0395,0.0447,0.0514,0.0571,0.0692,0.0757,0.0909,0.0945,0.1053,0.1098,0.1154,0.1188,0.1174,0.1247,0.126,0.1221,0.119,0.1266,0.1272,0.1274,0,0,0,0,0,0,0.0336,0.0355,0.0365,0.0405,0.0434,0.051,0.058,0.0669,0.0713,0.0867,0.0896,0.1024,0.1075,0.1152,0.1148,0.1162,0.1119,0.1293,0.1291,0.1263,0.1268,0.1273,0.1276,0,0,0,0,0]},{"header":{"parameterUnit":"m.s-1","parameterCategory":2,"la1":30.2991,"la2":30.254,"lo1":-89.0895,"lo2":-89.0444,"dy":0.0017,"dx":0.0017,"nx":28,"ny":28,"refTime":"2023-07-21T03:00:00:Z","depth":"4","parameterNumber":3,"parameterNumberName":"V-component_of_CURRENTS"},"data":[0,0,0,0,0,0,0,0,0,0,0,0,0,0,0,0,0,0,0,0,0,0,0,0,0,0,0,0,0,0,0,0,0,0,0,0,0,0,0,0,0,0,0,0,0,0,0,0,0,0,0,0,0,0,0,0,0,0,-0.0153,-0.0154,0,-0.0227,-0.0228,-0.0229,-0.027,-0.027,-0.027,-0.027,-0.0333,-0.0334,-0.0336,0,0,0,0,0,0,0,0,0,0,0,0,0,-0.0126,-0.0126,-0.0153,-0.0154,-0.0155,-0.0226,-0.0228,-0.0229,-0.027,-0.027,-0.027,-0.027,-0.0332,-0.0334,-0.0336,0,0,0,0,0,0,0,0,0,0,0,0,0,-0.0165,-0.0126,-0.0153,-0.0182,-0.0185,-0.0226,-0.0228,-0.0229,-0.027,-0.027,-0.027,-0.027,-0.0331,-0.0334,-0.0337,-0.0356,0,0,-0.0345,-0.0346,0,0,0,0,0,0,0,0,-0.0163,-0.0166,-0.0177,-0.018,-0.0184,-0.0237,-0.0241,-0.027,-0.027,-0.0241,-0.027,-0.027,-0.0298,-0.0303,-0.0322,-0.0359,-0.0362,-0.0345,-0.0347,-0.0348,-0.0348,0,0,0,0,0,0,0,-0.016,-0.0164,-0.0185,-0.0178,-0.0182,-0.0217,-0.0222,-0.0247,-0.0271,-0.0243,-0.0246,-0.025,-0.03,-0.0319,-0.0323,-0.0363,-0.0345,-0.0347,-0.0349,-0.035,-0.0452,-0.0453,0,0,0,0,0,0,-0.0141,-0.0161,-0.0183,-0.0187,-0.0169,-0.0217,-0.0223,-0.0222,-0.0271,-0.0278,-0.025,-0.0251,-0.0314,-0.032,-0.0326,-0.0339,-0.0348,-0.035,-0.0352,-0.045,-0.0452,-0.0453,0,0,0,0,0,0,-0.0141,-0.0143,-0.018,-0.0174,-0.0181,-0.0217,-0.0216,-0.0224,-0.0252,-0.0276,-0.0283,-0.0271,-0.0315,-0.0322,-0.0355,-0.0342,-0.0351,-0.0354,-0.0449,-0.0451,-0.0452,-0.0374,0,0,0,0,0,0,-0.0139,-0.0142,-0.014,-0.0172,-0.018,-0.0197,-0.0216,-0.0225,-0.0252,-0.0256,-0.0296,-0.0302,-0.0315,-0.0351,-0.0358,-0.0346,-0.0356,-0.0448,-0.045,-0.0452,-0.0375,-0.0373,-0.0371,0,0,0,0,0,-0.0138,-0.0124,-0.014,-0.0143,-0.0175,-0.0197,-0.0205,-0.0233,-0.0254,-0.026,-0.0295,-0.0301,-0.0369,-0.0354,-0.0362,-0.035,-0.0447,-0.0449,-0.0452,-0.0376,-0.0373,-0.0371,0,0,0,0,0,0,-0.0118,-0.0127,-0.0145,-0.0138,-0.0166,-0.0203,-0.0204,-0.0239,-0.0275,-0.0281,-0.0313,-0.032,-0.0346,-0.0372,-0.0355,-0.0392,-0.041,-0.0414,-0.0351,-0.0348,-0.0346,-0.0326,-0.0358,0,0,0,0,0,-0.0112,-0.0103,-0.0129,-0.013,-0.0131,-0.0176,-0.0192,-0.022,-0.0252,-0.0269,-0.0302,-0.0338,-0.0363,-0.0373,-0.0405,-0.0422,-0.0446,-0.0426,-0.0423,-0.0421,-0.0414,-0.045,-0.0449,-0.0461,-0.0461,-0.0461,0,0,-0.0108,-0.0111,-0.011,-0.0125,-0.0143,-0.0144,-0.0185,-0.0206,-0.0217,-0.027,-0.0293,-0.0334,-0.037,-0.0387,-0.0401,-0.0403,-0.0431,-0.0424,-0.0421,-0.0416,-0.0453,-0.0451,-0.045,-0.0463,-0.0463,-0.0462,0,0,-0.0086,-0.0092,-0.0074,-0.0085,-0.0108,-0.0131,-0.0138,-0.0183,-0.0204,-0.0241,-0.0278,-0.0318,-0.0359,-0.0379,-0.0393,-0.0405,-0.0422,-0.0417,-0.0377,-0.0411,-0.041,-0.0408,-0.0426,-0.0427,-0.0408,-0.0408,-0.0408,0,-0.0082,-0.0063,-0.0078,-0.0062,-0.0064,-0.012,-0.0111,-0.0137,-0.0198,-0.0214,-0.0237,-0.0316,-0.0351,-0.0362,-0.0366,-0.0394,-0.0413,-0.0373,-0.0404,-0.0403,-0.0404,-0.0422,-0.0424,-0.0405,-0.0405,-0.0406,-0.0406,0,-0.0042,-0.0033,-0.0019,-0.0011,-0.0021,-0.0023,-0.0052,-0.0079,-0.012,-0.0156,-0.0196,-0.0253,-0.0298,-0.0315,-0.034,-0.0357,-0.0369,-0.0397,-0.0397,-0.0397,-0.0418,-0.0421,-0.04,-0.0401,-0.0402,-0.0403,0,0,-0.0007,0.0007,0.0011,0.0021,0.0006,0.0002,-0.0003,-0.0026,-0.0036,-0.0097,-0.0112,-0.0167,-0.0216,-0.0238,-0.0281,-0.0308,-0.0328,-0.0345,-0.0348,-0.0338,-0.0389,-0.0389,-0.0393,-0.0354,-0.0354,-0.0355,-0.0397,0,0.0029,0.0065,0.0061,0.0085,0.0105,0.0069,0.007,0.0036,-0.0004,-0.0035,-0.0093,-0.013,-0.0177,-0.0203,-0.0237,-0.0313,-0.0336,-0.0313,-0.0413,-0.0416,-0.0396,-0.0397,-0.0357,-0.04,-0.0401,-0.0402,-0.0402,0,0.0078,0.0097,0.0129,0.0138,0.0146,0.0147,0.0136,0.0124,0.0076,0.0044,-0.0002,-0.0059,-0.0109,-0.0158,-0.0256,-0.0237,-0.0305,-0.0359,-0.0363,-0.0392,-0.0423,-0.041,-0.0409,-0.0408,-0.0408,-0.0408,-0.0407,0,0.0121,0.0147,0.0172,0.0179,0.0181,0.0186,0.0178,0.0143,0.0139,0.0088,0.0069,-0.0,-0.0048,-0.0131,-0.0256,-0.0254,-0.0368,-0.0384,-0.0441,-0.0441,-0.0459,-0.0461,-0.045,-0.045,-0.045,-0.045,-0.045,0,0.0168,0.0194,0.0194,0.0214,0.0242,0.0226,0.0244,0.0219,0.0192,0.0187,0.011,0.008,-0.0048,-0.0134,-0.0233,-0.0348,-0.0354,-0.043,-0.0454,-0.0427,-0.0424,-0.0461,-0.0462,-0.0452,-0.0451,-0.0451,-0.0451,0,0.0212,0.0212,0.0252,0.0262,0.0266,0.0285,0.0294,0.0299,0.0266,0.0255,0.0241,0.0137,0.0019,-0.0106,-0.0258,-0.0322,-0.0431,-0.0474,-0.0424,-0.0446,-0.048,-0.0476,-0.0518,-0.0518,-0.0518,-0.0519,-0.0519,0,0.0236,0.0257,0.0289,0.0306,0.0313,0.0338,0.0349,0.0335,0.0337,0.0284,0.0276,0.0163,0.008,-0.0118,-0.0259,-0.0427,-0.046,-0.0496,-0.0492,-0.0468,-0.0488,-0.0484,-0.048,-0.052,-0.052,-0.052,-0.052,0,0.0278,0.0287,0.0313,0.0348,0.0371,0.04,0.0413,0.0423,0.0397,0.0383,0.0303,0.0189,0.005,-0.0116,-0.0257,-0.0381,-0.0456,-0.05,-0.05,-0.0496,-0.0471,-0.0489,-0.0485,-0.0521,-0.0521,-0.0521,-0.0521,0,0.0302,0.0323,0.0345,0.0374,0.0411,0.0428,0.0443,0.0431,0.0429,0.0374,0.0345,0.0189,0.0099,-0.0094,-0.0224,-0.0345,-0.037,-0.0386,-0.0392,-0.0393,-0.0351,-0.03,-0.0313,0,0,0,0,0,0.0314,0.0326,0.036,0.0383,0.0423,0.0433,0.0462,0.0467,0.0457,0.0413,0.038,0.025,0.0044,-0.0058,-0.0178,-0.0236,-0.0394,-0.0378,-0.0417,-0.0528,-0.0526,-0.05,0,0,0,0,0,0,0.0314,0.0348,0.0356,0.0382,0.0394,0.0425,0.0443,0.0436,0.041,0.0388,0.0274,0.0231,0.0021,0.0104,-0.0182,-0.0221,-0.0256,-0.0475,-0.0477,-0.0529,-0.0527,-0.0526,-0.0499,0,0,0,0,0]}]]